Regional Weather Roundup
Issued by NWS

Home | Current Version | Previous Version | Graphics & Text | Print | Product List | Glossary Off
Versions: 1 2 3 4 5 6 7 8 9 10 11 12 13 14 15 16 17 18 19 20 21 22 23 24 25 26 27 28 29 30 31 32 33 34 35 36 37 38 39 40 41 42 43 44 45 46 47 48 49 50

000
ASUS43 KLSX 191607
RWRMO

WEATHER SUMMARY FOR MISSOURI
NATIONAL WEATHER SERVICE SPRINGFIELD MO
1000 AM CST THU JAN 19 2017

NOTE: "FAIR" INDICATES FEW OR NO CLOUDS BELOW 12,000 FEET WITH NO
       SIGNIFICANT WEATHER AND/OR OBSTRUCTIONS TO VISIBILITY.
       CURRENT SKY AND/OR WEATHER CONDITIONS ARE NOT AVAILABLE FOR
       CHILLICOTHE AND FARMINGTON.

MOZ001>031-035>038-043-044-053-054-191700-
...NORTHERN AND WESTERN MISSOURI...

CITY           SKY/WX    TMP DP  RH WIND       PRES   REMARKS
KANSAS CTY INT DRZL/FOG  45  43  93 S7        29.80S VSB 1/4
KANSAS C DTWN  CLOUDY    46  45  96 S3        29.80S FOG
LEE`S SUMMIT   CLOUDY    45  45 100 SE3       29.81S
ST JOSEPH      FOG       43  43 100 S6        29.81S VSB 1
CHILLICOTHE      N/A     42  42 100 SE3       29.83F
KIRKSVILLE     FOG       39  39 100 E5        29.84F VSB 1/4

$$
MOZ066>068-077>081-088>096-101>105-191700-
...SOUTHWEST MISSOURI...

CITY           SKY/WX    TMP DP  RH WIND       PRES   REMARKS
SPRINGFIELD    CLOUDY    46  44  93 SE10      29.81F FOG
JOPLIN         CLOUDY    49  48  97 S9        29.81S
BRANSON        FOG       45  45 100 CALM      29.86R VSB 3/4

$$
MOZ032>034-039>042-045>050-055>058-069>072-191700-
...CENTRAL MISSOURI...

CITY           SKY/WX    TMP DP  RH WIND       PRES   REMARKS
COLUMBIA       FOG       43  43 100 SE10      29.86S VSB 3/4
JEFFERSON CITY CLOUDY    45  43  93 SE8       29.88R FOG
ROLLA          LGT RAIN  43  43 100 SE7       29.86R FOG
SEDALIA        CLOUDY    46  45  96 SE7       29.84F FOG
WHITEMAN AFB   CLOUDY    46  46 100 S6        29.81F FOG
WARRENSBURG    CLOUDY    45  45 100 SE6       29.82S FOG
OSAGE BEACH    CLOUDY    45  44  97 SE6       29.85F FOG

$$
MOZ051-052-059>065-191700-
...EAST CENTRAL MISSOURI...

CITY           SKY/WX    TMP DP  RH WIND       PRES   REMARKS
ST LOUIS INTL  LGT RAIN  45  42  89 SE9       29.91F FOG
SPIRIT OF STL  CLOUDY    44  43  96 E7        29.89F FOG
ST CHARLES     CLOUDY    44  43  96 E10       29.90S FOG

$$
MOZ072>076-082>087-097>100-106>115-191700-
...SOUTH CENTRAL AND SOUTHEAST MISSOURI...

CITY           SKY/WX    TMP DP  RH WIND       PRES   REMARKS
CAPE GIRARDEAU CLOUDY    48  46  93 NE7       29.88F FOG
FARMINGTON     LGT RAIN  46  45  96 W3        29.89R FOG
POPLAR BLUFF   CLOUDY    47  47 100 N5        29.88F FOG
WEST PLAINS    FOG       45  44  97 E8        29.87F VSB 1/4

$$


USA.gov is the U.S. government's official web portal to all federal, state and local government web resources and services.